Previsão horária em Abadia

Hoje, 29 Outubro, Quinta-feira

Tempo Temperatura Precipitação Vento Pressão Humidade
00:00 +10°C° 0 mm 0 m/s 727 mmHg 87%
01:00 +10°C° 0 mm 0 m/s 727 mmHg 87%
02:00 +10°C° 0 mm 0 m/s 727 mmHg 87%
03:00 +10°C° 0 mm 0 m/s 727 mmHg 87%
04:00 +10°C° 0 mm 0 m/s 727 mmHg 87%
05:00 +10°C° 0 mm 1 m/s 727 mmHg 88%
06:00 +10°C° 0 mm 1 m/s 727 mmHg 88%
07:00 +12°C° 0 mm 1 m/s 728 mmHg 84%
08:00 +13°C° 0 mm 1 m/s 728 mmHg 81%
09:00 +15°C° 0 mm 1 m/s 729 mmHg 77%
10:00 +16°C° 0 mm 1 m/s 729 mmHg 72%
11:00 +18°C° 0 mm 2 m/s 729 mmHg 67%
12:00 +19°C° 0 mm 2 m/s 729 mmHg 61%
13:00 +19°C° 0 mm 2 m/s 728 mmHg 60%
14:00 +20°C° 0 mm 1 m/s 728 mmHg 59%
15:00 +21°C° 0 mm 1 m/s 728 mmHg 58%
16:00 +19°C° 0 mm 1 m/s 727 mmHg 66%
17:00 +16°C° 0 mm 1 m/s 727 mmHg 74%
18:00 +14°C° 0 mm 1 m/s 727 mmHg 81%
19:00 +13°C° 0 mm 1 m/s 727 mmHg 79%
20:00 +13°C° 0 mm 1 m/s 727 mmHg 77%
21:00 +13°C° 0 mm 1 m/s 728 mmHg 75%
22:00 +13°C° 0 mm 1 m/s 728 mmHg 75%
23:00 +12°C° 0 mm 1 m/s 728 mmHg 75%

Amanhã, 30 Outubro, Sexta-feira

Tempo Temperatura Precipitação Vento Pressão Humidade
00:00 +12°C° 0 mm 1 m/s 728 mmHg 74%
01:00 +12°C° 0 mm 1 m/s 727 mmHg 74%
02:00 +12°C° 0 mm 1 m/s 727 mmHg 73%
03:00 +12°C° 0 mm 1 m/s 727 mmHg 72%
04:00 +12°C° 0 mm 1 m/s 727 mmHg 71%
05:00 +12°C° 0 mm 1 m/s 727 mmHg 69%
06:00 +12°C° 0 mm 1 m/s 727 mmHg 67%
07:00 +13°C° 0 mm 1 m/s 728 mmHg 64%
08:00 +15°C° 0 mm 1 m/s 728 mmHg 61%
09:00 +18°C° 0 mm 1 m/s 728 mmHg 58%
10:00 +19°C° 0 mm 1 m/s 728 mmHg 54%
11:00 +21°C° 0 mm 1 m/s 728 mmHg 51%
12:00 +23°C° 0 mm 2 m/s 728 mmHg 48%
13:00 +23°C° 0 mm 2 m/s 728 mmHg 48%
14:00 +23°C° 0 mm 2 m/s 727 mmHg 49%
15:00 +23°C° 0 mm 1 m/s 727 mmHg 49%
16:00 +21°C° 0 mm 1 m/s 726 mmHg 57%
17:00 +19°C° 0 mm 1 m/s 726 mmHg 64%
18:00 +15°C° 0 mm 0 m/s 726 mmHg 72%
19:00 +14°C° 0 mm 0 m/s 726 mmHg 71%
20:00 +14°C° 0 mm 0 m/s 726 mmHg 70%
21:00 +15°C° 0 mm 1 m/s 727 mmHg 70%
22:00 +14°C° 0 mm 1 m/s 727 mmHg 70%
23:00 +14°C° 0 mm 1 m/s 727 mmHg 71%

Depois de amanhã, 31 Outubro, Sábado

Tempo Temperatura Precipitação Vento Pressão Humidade
00:00 +14°C° 0 mm 1 m/s 727 mmHg 71%
01:00 +14°C° 0 mm 1 m/s 727 mmHg 71%
02:00 +12°C° 0 mm 0 m/s 726 mmHg 71%
03:00 +12°C° 0 mm 0 m/s 726 mmHg 72%
04:00 +12°C° 0 mm 0 m/s 726 mmHg 70%
05:00 +12°C° 0 mm 0 m/s 727 mmHg 69%
06:00 +12°C° 0 mm 0 m/s 727 mmHg 68%
07:00 +13°C° 0 mm 0 m/s 727 mmHg 65%
08:00 +15°C° 0 mm 0 m/s 727 mmHg 62%
09:00 +16°C° 0 mm 0 m/s 728 mmHg 59%
10:00 +18°C° 0 mm 0 m/s 728 mmHg 56%
11:00 +21°C° 0 mm 1 m/s 728 mmHg 52%
12:00 +23°C° 0 mm 1 m/s 728 mmHg 49%
13:00 +23°C° 0 mm 1 m/s 727 mmHg 50%
14:00 +23°C° 0 mm 1 m/s 727 mmHg 51%
15:00 +23°C° 0 mm 2 m/s 727 mmHg 52%
16:00 +21°C° 0 mm 1 m/s 727 mmHg 60%
17:00 +19°C° 0 mm 1 m/s 727 mmHg 69%
18:00 +15°C° 0 mm 0 m/s 727 mmHg 77%
19:00 +15°C° 0 mm 0 m/s 727 mmHg 77%
20:00 +14°C° 0 mm 0 m/s 727 mmHg 77%
21:00 +15°C° 0 mm 1 m/s 727 mmHg 78%
22:00 +14°C° 0 mm 0 m/s 727 mmHg 78%
23:00 +14°C° 0 mm 0 m/s 727 mmHg 79%

1 Novembro, Domingo

Tempo Temperatura Precipitação Vento Pressão Humidade
00:00 +13°C° 0 mm 0 m/s 727 mmHg 79%
01:00 +13°C° 0 mm 0 m/s 727 mmHg 80%
02:00 +13°C° 0 mm 0 m/s 727 mmHg 80%
03:00 +13°C° 0 mm 0 m/s 727 mmHg 81%
04:00 +13°C° 0 mm 0 m/s 727 mmHg 81%
05:00 +13°C° 0 mm 0 m/s 727 mmHg 80%
06:00 +13°C° 0 mm 0 m/s 727 mmHg 79%
07:00 +14°C° 0 mm 0 m/s 727 mmHg 76%
08:00 +16°C° 0 mm 0 m/s 727 mmHg 72%
09:00 +17°C° 0 mm 0 m/s 727 mmHg 69%
10:00 +18°C° 0 mm 0 m/s 727 mmHg 66%
11:00 +21°C° 0 mm 1 m/s 727 mmHg 62%
12:00 +22°C° 0 mm 1 m/s 727 mmHg 59%
13:00 +22°C° 0 mm 1 m/s 727 mmHg 59%
14:00 +22°C° 0 mm 1 m/s 727 mmHg 60%
15:00 +22°C° 0 mm 1 m/s 726 mmHg 61%
16:00 +21°C° 0 mm 1 m/s 726 mmHg 67%
17:00 +19°C° 0 mm 1 m/s 726 mmHg 74%
18:00 +16°C° 0 mm 0 m/s 726 mmHg 81%
19:00 +16°C° 0 mm 0 m/s 726 mmHg 81%
20:00 +15°C° 0 mm 0 m/s 726 mmHg 81%
21:00 +15°C° 0 mm 0 m/s 726 mmHg 81%
22:00 +15°C° 0 mm 0 m/s 726 mmHg 82%
23:00 +15°C° 0 mm 0 m/s 725 mmHg 83%

2 Novembro, Segunda-feira

Tempo Temperatura Precipitação Vento Pressão Humidade
00:00 +14°C° 0 mm 0 m/s 725 mmHg 84%
01:00 +14°C° 0 mm 0 m/s 725 mmHg 85%
02:00 +14°C° 0 mm 0 m/s 725 mmHg 87%
03:00 +13°C° 0 mm 0 m/s 724 mmHg 89%
04:00 +13°C° 0 mm 0 m/s 724 mmHg 89%
05:00 +13°C° 0 mm 0 m/s 725 mmHg 89%
06:00 +13°C° 0 mm 0 m/s 725 mmHg 89%
07:00 +15°C° 0 mm 1 m/s 725 mmHg 85%
08:00 +18°C° 0 mm 1 m/s 725 mmHg 81%
09:00 +19°C° 0 mm 1 m/s 726 mmHg 76%
10:00 +20°C° 0 mm 1 m/s 725 mmHg 71%
11:00 +20°C° 0 mm 2 m/s 725 mmHg 67%
12:00 +21°C° 0 mm 2 m/s 725 mmHg 62%
13:00 +21°C° 0 mm 2 m/s 725 mmHg 62%
14:00 +21°C° 0 mm 2 m/s 724 mmHg 62%
15:00 +21°C° 0 mm 2 m/s 724 mmHg 62%
16:00 +20°C° 0 mm 2 m/s 724 mmHg 70%
17:00 +19°C° 0 mm 1 m/s 724 mmHg 77%
18:00 +18°C° 0 mm 1 m/s 724 mmHg 84%
19:00 +16°C° 0 mm 1 m/s 724 mmHg 85%
20:00 +16°C° 0 mm 1 m/s 724 mmHg 87%
21:00 +15°C° 0 mm 0 m/s 724 mmHg 88%
22:00 +15°C° 0.5 mm 0 m/s 724 mmHg 89%
23:00 +15°C° 0.5 mm 0 m/s 724 mmHg 91%

3 Novembro, Terça-feira

Tempo Temperatura Precipitação Vento Pressão Humidade
00:00 +15°C° 0.5 mm 0 m/s 724 mmHg 92%
01:00 +15°C° 1.1 mm 0 m/s 724 mmHg 93%
02:00 +15°C° 1.1 mm 0 m/s 724 mmHg 95%
03:00 +15°C° 1.1 mm 0 m/s 724 mmHg 96%
04:00 +15°C° 0.2 mm 1 m/s 725 mmHg 94%
05:00 +14°C° 0.2 mm 1 m/s 725 mmHg 92%
06:00 +13°C° 0.2 mm 2 m/s 725 mmHg 90%
07:00 +14°C° 0 mm 2 m/s 725 mmHg 85%
08:00 +14°C° 0 mm 2 m/s 725 mmHg 80%
09:00 +14°C° 0 mm 2 m/s 726 mmHg 75%
10:00 +15°C° 0 mm 2 m/s 726 mmHg 70%
11:00 +16°C° 0 mm 2 m/s 726 mmHg 65%
12:00 +17°C° 0 mm 2 m/s 726 mmHg 60%
13:00 +17°C° 0 mm 2 m/s 726 mmHg 60%
14:00 +18°C° 0 mm 3 m/s 725 mmHg 60%
15:00 +18°C° 0 mm 3 m/s 725 mmHg 61%
16:00 +16°C° 0 mm 3 m/s 725 mmHg 65%
17:00 +14°C° 0 mm 4 m/s 726 mmHg 69%
18:00 +13°C° 0 mm 4 m/s 726 mmHg 73%
19:00 +12°C° 0 mm 5 m/s 726 mmHg 73%
20:00 +10°C° 0 mm 5 m/s 726 mmHg 74%
21:00 +9°C° 0 mm 5 m/s 727 mmHg 74%
22:00 +9°C° 0 mm 5 m/s 727 mmHg 72%
23:00 +9°C° 0 mm 5 m/s 727 mmHg 71%
Mostrar mais